Location: Dead Woman Crossing
(43.5369°N, 106.3228°W)
Time: 02:57:26
(UTC+00:00)

COSMOS 2251 DEB - Pass Details

Date: 09 December 2022
Orbit: 765 x 800 km, 74.0° (Epoch: 25 January)

Event Time Altitude Azimuth Distance (km) Brightness Sun altitude
Rises 13:23:45 0° 168° (SSE) 3,281 ? -11.0°
Reaches altitude 10° 13:26:25 10° 158° (SSE) 2,351 ? -10.6°
Maximum altitude 13:30:57 29° 100° (E) 1,424 ? -9.8°
Drops below altitude 10° 13:35:27 10° 42° (NE) 2,346 ? -9.1°
Sets 13:38:06 0° 31° (NNE) 3,272 ? -8.6°
